This is the latest recevied weather packets stored in our database for station/object N3DXC. If no packets are shown the sender has not sent any weather packets the latest 1 day(s).
| Time | Temp. | Humidity | Pressure | Rain* | Wind** | Luminosity | Snow |
|---|---|---|---|---|---|---|---|
| 1778002190 | 21.67° C | 46% | 1008.6 hPa | 0 mm | 8.49 m/s, 241° | - | - |
| 1778001890 | 21.11° C | 46% | 1008.7 hPa | 0 mm | 9.83 m/s, 217° | - | - |
| 1778001590 | 21.11° C | 47% | 1008.8 hPa | 0 mm | 4.92 m/s, 241° | - | - |
| 1778001290 | 21.11° C | 46% | 1008.9 hPa | 0 mm | 8.49 m/s, 246° | - | - |
| 1778000990 | 21.11° C | 44% | 1008.9 hPa | 0 mm | 11.18 m/s, 208° | - | - |
| 1778000690 | 21.11° C | 46% | 1009 hPa | 0 mm | 6.71 m/s, 230° | - | - |
| 1778000390 | 21.11° C | 47% | 1009 hPa | 0 mm | 7.15 m/s, 239° | - | - |
| 1778000090 | 20.56° C | 47% | 1009 hPa | 0 mm | 6.71 m/s, 205° | - | - |
| 1777999790 | 20.56° C | 46% | 1008.9 hPa | 0 mm | 10.28 m/s, 244° | - | - |
| 1777999490 | 20.56° C | 46% | 1008.8 hPa | 0 mm | 7.6 m/s, 246° | - | - |
| 1777999190 | 21.11° C | 47% | 1008.9 hPa | 0 mm | 11.18 m/s, 230° | - | - |
| 1777998890 | 21.11° C | 45% | 1008.9 hPa | 0 mm | 5.36 m/s, 206° | - | - |
| 1777998590 | 21.11° C | 46% | 1009 hPa | 0 mm | 5.36 m/s, 237° | - | - |
| 1777998290 | 21.67° C | 45% | 1008.9 hPa | 0 mm | 9.39 m/s, 216° | - | - |
| 1777997990 | 21.67° C | 45% | 1008.9 hPa | 0 mm | 8.49 m/s, 168° | - | - |
| 1777997692 | 21.11° C | 48% | 1008.8 hPa | 0 mm | 8.05 m/s, 209° | - | - |
| 1777997390 | 21.11° C | 46% | 1008.9 hPa | 0 mm | 4.92 m/s, 232° | - | - |
| 1777997091 | 20° C | 49% | 1009 hPa | 0 mm | 11.18 m/s, 210° | - | - |
| 1777996790 | 20° C | 49% | 1009 hPa | 0 mm | 10.73 m/s, 213° | - | - |
| 1777996492 | 20.56° C | 49% | 1009.1 hPa | 0 mm | 8.49 m/s, 191° | - | - |
| 1777996190 | 20.56° C | 50% | 1009.2 hPa | 0 mm | 5.36 m/s, 215° | - | - |
| 1777995890 | 20° C | 51% | 1009.3 hPa | 0 mm | 8.05 m/s, 213° | - | - |
| 1777995590 | 19.44° C | 51% | 1009.3 hPa | 0 mm | 12.96 m/s, 247° | - | - |
| 1777995290 | 20° C | 51% | 1009.5 hPa | 0 mm | 4.92 m/s, 216° | - | - |
| 1777994990 | 20° C | 50% | 1009.4 hPa | 0 mm | 5.81 m/s, 222° | - | - |
* Rain latest hour (hover to see other rain measurements)
** Current wind speed in m/s (hover to see current wind gust speed)